Stations météo

réclame
Mon MeteoGroup
Braemar, Grande-Bretagne (99089): Température de l'air & dewpoint: 08.08.2018 20:00:00 - 14.08.2018 20:00:00 (BST)Braemar, Grande-Bretagne (99089): Température de l'air -20cm & Température de l'air -100cm: 08.08.2018 20:00:00 - 14.08.2018 20:00:00 (BST)Braemar, Grande-Bretagne (99089): Quantités de précipitations: 08.08.2018 20:00:00 - 14.08.2018 20:00:00 (BST)
Date & Time tt [°C] td [°C] tt -20cm [°C] tt -100cm [°C] rr [mm]
14.08.2018 20:00:00 - - - - -
14.08.2018 19:00:00 17,6 11,7 - - 0,0
14.08.2018 18:00:00 18,7 12,4 - - 0,0
14.08.2018 17:00:00 18,1 13,4 - - 0,0
14.08.2018 16:00:00 17,8 13,7 - - 0,0
14.08.2018 15:00:00 17,2 13,0 - - 0,0
14.08.2018 14:00:00 15,9 13,2 - - 0,4
14.08.2018 13:00:00 14,4 12,5 - - 0,6
14.08.2018 12:00:00 15,3 11,6 - - 0,0
14.08.2018 11:00:00 14,9 11,2 - - 0,0
14.08.2018 10:00:00 14,9 11,2 14,2 13,5 0,0
14.08.2018 09:00:00 14,3 11,0 - - 0,0
14.08.2018 08:00:00 13,2 10,6 - - 0,0
14.08.2018 07:00:00 12,4 10,3 - - 0,0
14.08.2018 06:00:00 11,3 9,5 - - 0,0
14.08.2018 05:00:00 11,2 9,2 - - 0,0
14.08.2018 04:00:00 11,5 9,8 - - 0,0
14.08.2018 03:00:00 12,6 11,0 - - 0,0
14.08.2018 02:00:00 13,1 11,4 - - 0,0
14.08.2018 01:00:00 13,3 12,3 - - 0,0
14.08.2018 00:00:00 13,7 12,1 - - 0,0
13.08.2018 23:00:00 13,9 12,2 - - 0,0
13.08.2018 22:00:00 13,8 12,4 - - 0,0
13.08.2018 21:00:00 14,1 12,3 - - 0,0
13.08.2018 20:00:00 15,0 12,8 - - 0,0
13.08.2018 19:00:00 14,7 13,1 - - 0,0
13.08.2018 18:00:00 14,5 13,3 - - 0,0
13.08.2018 17:00:00 14,5 13,1 - - 0,0
13.08.2018 16:00:00 14,4 13,0 - - 0,0
13.08.2018 15:00:00 13,9 12,9 - - 0,0
13.08.2018 14:00:00 13,7 12,3 - - 0,0
13.08.2018 13:00:00 13,6 12,1 - - 0,0
13.08.2018 12:00:00 13,0 11,8 - - 0,0
13.08.2018 11:00:00 12,5 11,6 - - 0,0
13.08.2018 10:00:00 12,1 11,5 13,9 13,7 0,2
13.08.2018 09:00:00 11,6 11,0 - - 0,6
13.08.2018 08:00:00 11,4 11,0 - - 0,8
13.08.2018 07:00:00 11,3 10,9 - - 0,2
13.08.2018 06:00:00 11,3 10,9 - - 1,2
13.08.2018 05:00:00 11,4 10,9 - - 1,0
13.08.2018 04:00:00 11,4 10,9 - - 0,4
13.08.2018 03:00:00 11,4 10,9 - - 0,6
13.08.2018 02:00:00 11,4 10,9 - - 0,2
13.08.2018 01:00:00 11,2 10,7 - - 0,0
13.08.2018 00:00:00 11,0 10,5 - - 0,2
12.08.2018 23:00:00 10,9 10,4 - - 0,2
12.08.2018 22:00:00 10,9 10,3 - - 0,8
12.08.2018 21:00:00 11,3 10,5 - - 0,2
12.08.2018 20:00:00 11,6 10,0 - - 0,0
12.08.2018 19:00:00 12,1 9,8 - - 0,0
12.08.2018 18:00:00 12,2 10,5 - - 0,0
12.08.2018 17:00:00 12,5 10,5 - - 0,0
12.08.2018 16:00:00 12,4 10,6 - - 0,0
12.08.2018 15:00:00 12,2 10,5 - - 0,0
12.08.2018 14:00:00 12,3 11,0 - - 0,6
12.08.2018 13:00:00 12,2 11,0 - - 0,4
12.08.2018 12:00:00 12,0 10,5 - - 0,0
12.08.2018 11:00:00 11,5 10,3 - - 0,0
12.08.2018 10:00:00 11,3 10,3 14,2 13,7 0,2
12.08.2018 09:00:00 11,3 10,3 - - 0,0
12.08.2018 08:00:00 11,2 10,1 - - 0,0
12.08.2018 07:00:00 11,2 9,4 - - 0,0
12.08.2018 06:00:00 11,3 8,8 - - 0,0
12.08.2018 05:00:00 9,7 8,2 - - 0,0
12.08.2018 04:00:00 9,7 8,1 - - 0,0
12.08.2018 03:00:00 9,8 7,7 - - 0,0
12.08.2018 02:00:00 9,7 7,7 - - 0,0
12.08.2018 01:00:00 9,8 8,2 - - 0,0
12.08.2018 00:00:00 10,0 8,6 - - 0,0
11.08.2018 23:00:00 10,3 8,7 - - 0,0
11.08.2018 22:00:00 10,7 8,6 - - 0,2
11.08.2018 21:00:00 12,6 7,5 - - 0,0
11.08.2018 20:00:00 13,8 7,2 - - 0,0
11.08.2018 19:00:00 14,6 6,4 - - 0,0
11.08.2018 18:00:00 15,3 5,7 - - 0,0
11.08.2018 17:00:00 16,6 5,3 - - 0,0
11.08.2018 16:00:00 14,8 5,5 - - 0,0
11.08.2018 15:00:00 14,7 5,7 - - 0,0
11.08.2018 14:00:00 14,3 6,0 - - 0,0
11.08.2018 13:00:00 15,2 6,5 - - 0,0
11.08.2018 12:00:00 14,0 5,5 - - 0,0
11.08.2018 11:00:00 14,2 8,1 - - 0,0
11.08.2018 10:00:00 12,7 7,5 14,0 14,0 0,0
11.08.2018 09:00:00 9,7 8,0 - - 0,0
11.08.2018 08:00:00 6,2 6,1 - - 0,0
11.08.2018 07:00:00 4,4 4,3 - - 0,0
11.08.2018 06:00:00 3,3 2,9 - - 0,0
11.08.2018 05:00:00 4,0 3,5 - - 0,0
11.08.2018 04:00:00 5,5 4,8 - - 0,0
11.08.2018 03:00:00 7,0 5,7 - - 0,0
11.08.2018 02:00:00 9,1 8,1 - - 0,0
11.08.2018 01:00:00 9,3 8,4 - - 0,0
11.08.2018 00:00:00 9,5 8,3 - - 0,0
10.08.2018 23:00:00 10,1 8,7 - - 0,0
10.08.2018 22:00:00 10,5 8,4 - - 0,0
10.08.2018 21:00:00 11,2 8,8 - - 0,0
10.08.2018 20:00:00 12,3 8,4 - - 0,0
10.08.2018 19:00:00 12,3 9,3 - - 0,0
10.08.2018 18:00:00 13,2 8,6 - - 0,2
10.08.2018 17:00:00 12,2 9,0 - - 0,0
10.08.2018 16:00:00 11,5 8,1 - - 0,2
10.08.2018 15:00:00 12,0 9,8 - - 2,4
10.08.2018 14:00:00 12,8 5,9 - - 0,0
10.08.2018 13:00:00 14,5 6,7 - - 0,0
10.08.2018 12:00:00 13,9 6,8 - - 0,0
10.08.2018 11:00:00 14,2 7,5 - - 0,0
10.08.2018 10:00:00 8,6 6,6 14,2 14,2 0,0
10.08.2018 09:00:00 5,9 5,5 - - 0,0
10.08.2018 08:00:00 3,6 3,4 - - 0,0
10.08.2018 07:00:00 1,9 1,7 - - 0,0
10.08.2018 06:00:00 1,1 0,7 - - 0,0
10.08.2018 05:00:00 1,6 1,2 - - 0,0
10.08.2018 04:00:00 2,1 1,6 - - 0,0
10.08.2018 03:00:00 2,8 2,3 - - 0,0
10.08.2018 02:00:00 3,7 3,1 - - 0,0
10.08.2018 01:00:00 4,6 3,9 - - 0,0
10.08.2018 00:00:00 4,3 3,3 - - 0,0
09.08.2018 23:00:00 5,7 4,6 - - 0,0
09.08.2018 22:00:00 7,9 4,9 - - 0,0
09.08.2018 21:00:00 10,3 5,5 - - 0,0
09.08.2018 20:00:00 12,7 6,3 - - 0,0
09.08.2018 19:00:00 13,5 6,7 - - 0,0
09.08.2018 18:00:00 15,3 5,7 - - 0,0
09.08.2018 17:00:00 14,1 6,2 - - 0,0
09.08.2018 16:00:00 14,7 5,2 - - 0,0
09.08.2018 15:00:00 14,2 6,5 - - 0,0
09.08.2018 14:00:00 14,8 6,1 - - 0,0
09.08.2018 13:00:00 13,6 5,2 - - 0,0
09.08.2018 12:00:00 13,5 6,1 - - 0,0
09.08.2018 11:00:00 12,3 5,4 - - 0,0
09.08.2018 10:00:00 13,0 6,1 15,0 14,4 0,0
09.08.2018 09:00:00 11,3 5,7 - - 0,0
09.08.2018 08:00:00 8,1 8,1 - - 0,0
09.08.2018 07:00:00 3,5 3,4 - - 0,0
09.08.2018 06:00:00 2,4 2,2 - - 0,0
09.08.2018 05:00:00 2,4 2,0 - - 0,0
09.08.2018 04:00:00 3,4 3,0 - - 0,0
09.08.2018 03:00:00 4,0 3,5 - - 0,0
09.08.2018 02:00:00 4,6 3,9 - - 0,0
09.08.2018 01:00:00 5,5 4,1 - - 0,0
09.08.2018 00:00:00 8,8 5,7 - - 0,0
08.08.2018 23:00:00 7,8 5,2 - - 0,0
08.08.2018 22:00:00 9,6 5,2 - - 0,0
08.08.2018 21:00:00 11,0 5,0 - - 0,0
08.08.2018 20:00:00 12,7 5,1 - - 0,0

tt = Température de l'air
td = dewpoint
tt -20cm = Température de l'air -20cm
tt -100cm = Température de l'air -100cm
rr = Quantités de précipitations

stations d'obs. à proximité